Simultaneous Nadir Overpasses (SNOs) Predictions

Prediction of SNOs between NOAA-19 and METOP-C Satellite Orbit:

Table of predicted SNOs for the next 14.0 days since TLE Epoch: 7/21/2023
Index Date (NOAA-19) Time (NOAA-19) Lat,Lon (NOAA-19) SZA (NOAA-19 ) Date (METOP-C) Time (METOP-C) Lat,Lon (METOP-C) SZA (METOP-C ) Distance(km) Time Diff (sec)
1 07/23/2023 08:29:28 -80.89, -93.73 117.77 07/23/2023 08:30:40 -80.90, -93.76 117.74 0.77 72
2 07/23/2023 09:20:32 80.89, 73.35 62.22 07/23/2023 09:21:20 80.90, 73.50 62.26 2.62 48
3 07/23/2023 10:11:27 -80.89,-119.23 117.76 07/23/2023 10:12:02 -80.89,-119.27 117.75 0.83 35
4 07/23/2023 11:02:30 80.90, 48.22 62.28 07/23/2023 11:02:41 80.90, 48.34 62.30 2.32 11
5 07/23/2023 11:53:25 -80.90,-144.36 117.71 07/23/2023 11:53:23 -80.90,-144.43 117.71 1.18 2
6 07/23/2023 12:44:29 80.90, 22.71 62.29 07/23/2023 12:44:03 80.90, 22.83 62.29 2.05 26
7 07/23/2023 13:35:23 -80.91,-169.49 117.65 07/23/2023 13:34:44 -80.91,-169.58 117.68 1.69 39
8 07/23/2023 14:26:27 80.90, -2.42 62.34 07/23/2023 14:25:24 80.91, -2.33 62.33 1.65 63
9 08/03/2023 20:41:39 80.88, -97.35 64.86 08/03/2023 20:42:41 80.88, -97.22 64.89 2.37 62
10 08/03/2023 21:32:36 -80.88, 70.32 115.09 08/03/2023 21:33:22 -80.88, 70.27 115.08 0.79 46
11 08/03/2023 22:23:37 80.88,-122.50 64.91 08/03/2023 22:24:02 80.89,-122.38 64.93 2.06 25
12 08/03/2023 23:14:34 -80.89, 45.17 115.04 08/03/2023 23:14:43 -80.89, 45.11 115.04 1.25 9
13 08/04/2023 00:05:35 80.89,-147.65 64.97 08/04/2023 00:05:23 80.89,-147.55 64.98 1.80 12
14 08/04/2023 00:56:33 -80.89, 19.66 115.02 08/04/2023 00:56:05 -80.88, 19.58 115.05 1.55 28
15 08/04/2023 01:47:33 80.90,-172.79 65.02 08/04/2023 01:46:44 80.90,-172.71 65.02 1.64 49



Historial Predications of SNOs between NOAA-19 and METOP-C
